Date String (YYYY-MM-DD hh:mm:ss) UTC,Instrument flags,absolute air pressure of the measurement (hPa),sample flow rate (lpm),inlet stack bypass flow (lpm),air temperature of the measurement (°C),ambient temperature measured by the external sensor (°C),aerosol sample conditioner tube jacket temperature (°C),OPC LED temperature (°C),internal box temperature (°C),relative humidity of the measurement (%),span deviation,mass concentration of particles derived from Lorenz-Mie calculation of OPC scattering (μg/m³),mass concentration of particles derived from Lorenz-Mie calculation of OPC scattering (μg/m³),mass concentration of particles derived from Lorenz-Mie calculation of OPC scattering (μg/m³)
DateTimeUTC,F1_M11,P_M11,Q1_M11,Q2_M11,T1_M11,T2_M11,T3_M11,T4_M11,T5_M11,U1_M11,ZSPAN_M11,X0_M11,X2_M11,X1_M11
2024-05-05 00:00:00,SystemResetWarning,0826.1,5.00,000.00,024.9,023.1,000.0,033.5,026.4,019.7,0000.0,0015.78,0004.94,0003.80
2024-05-05 00:01:00,SystemResetWarning,0826.1,4.99,000.00,024.9,023.5,000.0,033.5,026.6,019.4,0000.0,0015.22,0004.88,0003.78
2024-05-05 00:02:00,SystemResetWarning,0826.2,4.99,000.00,025.0,023.8,000.0,033.5,026.7,019.5,0000.0,0016.09,0004.86,0003.76
2024-05-05 00:03:00,SystemResetWarning,0826.2,5.01,000.00,025.0,024.0,000.0,033.4,026.8,019.5,0000.0,0015.93,0004.83,0003.73
2024-05-05 00:04:00,SystemResetWarning,0826.2,5.01,000.00,025.1,024.3,000.0,033.4,026.9,019.2,0000.0,0016.16,0004.82,0003.71
2024-05-05 00:05:00,SystemResetWarning,0826.2,5.00,000.00,025.2,024.5,000.0,033.5,027.0,019.1,0000.0,0016.32,0004.76,0003.68
2024-05-05 00:06:00,SystemResetWarning,0826.2,5.00,000.00,025.2,024.6,000.0,033.5,027.1,019.3,0000.0,0015.53,0004.77,0003.66
2024-05-05 00:07:00,SystemResetWarning,0826.2,5.00,000.00,025.3,024.8,000.0,033.5,027.2,019.4,0000.0,0016.11,0004.75,0003.64
2024-05-05 00:08:00,SystemResetWarning,0826.2,5.00,000.00,025.3,024.9,000.0,033.5,027.3,019.5,0000.0,0015.43,0004.72,0003.60
2024-05-05 00:09:00,SystemResetWarning,0826.2,5.00,000.00,025.4,025.0,000.0,033.6,027.4,019.2,0000.0,0016.95,0004.73,0003.58
2024-05-05 00:10:00,SystemResetWarning,0826.2,5.00,000.00,025.5,025.1,000.0,033.6,027.4,019.1,0000.0,0018.05,0004.69,0003.57
2024-05-05 00:11:00,SystemResetWarning,0826.2,5.00,000.00,025.5,025.2,000.0,033.6,027.5,019.0,0000.0,0018.77,0004.65,0003.57
2024-05-05 00:12:00,SystemResetWarning,0826.2,5.00,000.00,025.6,025.3,000.0,033.7,027.5,019.0,0000.0,0018.89,0004.69,0003.55
2024-05-05 00:13:00,SystemResetWarning,0826.2,5.00,000.00,025.7,025.3,000.0,033.7,027.6,019.1,0000.0,0019.18,0004.70,0003.54
2024-05-05 00:14:00,SystemResetWarning,0826.2,5.00,000.00,025.7,025.4,000.0,033.8,027.7,018.7,0000.0,0020.00,0004.69,0003.53
2024-05-05 00:15:00,SystemResetWarning,0826.2,4.99,000.00,025.7,025.0,000.0,033.8,027.4,018.7,0000.0,0020.09,0004.69,0003.52
2024-05-05 00:16:00,SystemResetWarning,0826.0,4.99,000.00,025.4,022.6,000.0,033.9,026.2,019.0,0000.0,0019.76,0004.73,0003.50
2024-05-05 00:17:00,SystemResetWarning,0826.0,5.02,000.00,024.9,021.1,000.0,033.8,025.4,019.5,0000.0,0020.14,0004.73,0003.49
2024-05-05 00:18:00,SystemResetWarning,0826.1,5.00,000.00,024.7,021.5,000.0,033.7,025.5,019.8,0000.0,0019.76,0004.71,0003.48
2024-05-05 00:19:00,SystemResetWarning,0826.0,4.99,000.00,024.6,022.0,000.0,033.5,025.7,019.7,0000.0,0019.39,0004.71,0003.48
2024-05-05 00:20:00,SystemResetWarning,0826.0,5.00,000.00,024.7,022.5,000.0,033.4,026.0,019.7,0000.0,0017.57,0004.69,0003.48
2024-05-05 00:21:00,SystemResetWarning,0826.0,5.01,000.00,024.7,022.9,000.0,033.4,026.2,019.8,0000.0,0017.69,0004.72,0003.49
2024-05-05 00:22:00,SystemResetWarning,0826.0,4.99,000.00,024.7,023.3,000.0,033.3,026.4,020.0,0000.0,0016.57,0004.74,0003.48
2024-05-05 00:23:00,SystemResetWarning,0826.0,4.98,000.00,024.8,023.6,000.0,033.3,026.5,019.9,0000.0,0016.11,0004.76,0003.48
2024-05-05 00:24:00,SystemResetWarning,0826.0,5.01,000.00,024.9,023.9,000.0,033.3,026.6,019.8,0000.0,0015.55,0004.76,0003.48
2024-05-05 00:25:00,SystemResetWarning,0826.0,5.02,000.00,024.9,024.1,000.0,033.3,026.7,019.6,0000.0,0015.39,0004.75,0003.48
2024-05-05 00:26:00,SystemResetWarning,0826.0,4.99,000.00,025.0,024.3,000.0,033.3,026.9,019.3,0000.0,0015.49,0004.77,0003.49
2024-05-05 00:27:00,SystemResetWarning,0826.0,4.99,000.00,025.0,024.4,000.0,033.3,026.9,019.4,0000.0,0016.56,0004.76,0003.49
2024-05-05 00:28:00,SystemResetWarning,0825.9,5.00,000.00,025.1,024.6,000.0,033.3,027.0,019.3,0000.0,0016.34,0004.76,0003.50
2024-05-05 00:29:00,SystemResetWarning,0825.9,5.01,000.00,025.2,024.7,000.0,033.3,027.1,019.3,0000.0,0016.59,0004.78,0003.50
2024-05-05 00:30:00,SystemResetWarning,0825.9,5.00,000.00,025.2,024.8,000.0,033.4,027.2,019.4,0000.0,0016.86,0004.76,0003.49
2024-05-05 00:31:00,SystemResetWarning,0825.9,4.99,000.00,025.3,024.9,000.0,033.4,027.3,018.9,0000.0,0017.03,0004.78,0003.48
2024-05-05 00:32:00,SystemResetWarning,0825.9,4.99,000.00,025.4,025.0,000.0,033.5,027.3,018.7,0000.0,0015.84,0004.77,0003.47
2024-05-05 00:33:00,SystemResetWarning,0825.9,5.01,000.00,025.4,025.1,000.0,033.5,027.4,018.7,0000.0,0015.34,0004.74,0003.46
2024-05-05 00:34:00,SystemResetWarning,0825.9,5.02,000.00,025.5,025.2,000.0,033.5,027.5,018.7,0000.0,0015.43,0004.69,0003.44
2024-05-05 00:35:00,SystemResetWarning,0825.9,5.00,000.00,025.6,025.1,000.0,033.6,027.4,018.5,0000.0,0015.18,0004.67,0003.43
2024-05-05 00:36:00,SystemResetWarning,0825.9,4.98,000.00,025.3,023.3,000.0,033.7,026.4,018.9,0000.0,0014.48,0004.70,0003.43
2024-05-05 00:37:00,SystemResetWarning,0825.9,5.03,000.00,025.0,022.3,000.0,033.7,025.9,019.4,0000.0,0016.24,0004.64,0003.41
2024-05-05 00:38:00,SystemResetWarning,0825.9,4.99,000.00,024.9,022.6,000.0,033.6,026.0,019.2,0000.0,0015.25,0004.65,0003.40
2024-05-05 00:39:00,SystemResetWarning,0825.9,5.00,000.00,024.9,022.9,000.0,033.5,026.2,019.5,0000.0,0015.11,0004.63,0003.39
2024-05-05 00:40:00,SystemResetWarning,0825.9,5.00,000.00,024.9,023.3,000.0,033.4,026.4,019.4,0000.0,0014.23,0004.60,0003.36
2024-05-05 00:41:00,SystemResetWarning,0825.9,4.99,000.00,024.9,023.6,000.0,033.4,026.6,019.6,0000.0,0014.30,0004.57,0003.34
2024-05-05 00:42:00,SystemResetWarning,0825.9,4.99,000.00,025.0,023.9,000.0,033.3,026.7,019.5,0000.0,0014.23,0004.53,0003.33
2024-05-05 00:43:00,SystemResetWarning,0825.9,5.00,000.00,025.0,024.1,000.0,033.3,026.8,019.5,0000.0,0014.41,0004.50,0003.30
2024-05-05 00:44:00,SystemResetWarning,0825.8,5.01,000.00,025.1,024.3,000.0,033.4,026.9,019.2,0000.0,0016.12,0004.49,0003.29
2024-05-05 00:45:00,SystemResetWarning,0825.8,5.01,000.00,025.1,024.5,000.0,033.4,027.0,019.0,0000.0,0017.51,0004.49,0003.29
2024-05-05 00:46:00,SystemResetWarning,0825.8,5.00,000.00,025.2,024.6,000.0,033.4,027.1,018.9,0000.0,0017.89,0004.45,0003.28
2024-05-05 00:47:00,SystemResetWarning,0825.8,4.99,000.00,025.3,024.8,000.0,033.4,027.2,018.9,0000.0,0017.48,0004.40,0003.26
2024-05-05 00:48:00,SystemResetWarning,0825.8,5.00,000.00,025.3,024.9,000.0,033.4,027.3,018.8,0000.0,0016.77,0004.40,0003.25
2024-05-05 00:49:00,SystemResetWarning,0825.8,4.99,000.00,025.4,025.0,000.0,033.5,027.3,018.8,0000.0,0017.26,0004.35,0003.23
2024-05-05 00:50:00,SystemResetWarning,0825.8,5.00,000.00,025.5,025.1,000.0,033.5,027.4,018.7,0000.0,0017.43,0004.30,0003.20
2024-05-05 00:51:00,SystemResetWarning,0825.8,4.99,000.00,025.5,025.0,000.0,033.6,027.4,018.6,0000.0,0017.84,0004.28,0003.18
2024-05-05 00:52:00,SystemResetWarning,0825.7,5.00,000.00,025.3,023.2,000.0,033.6,026.4,018.8,0000.0,0018.02,0004.26,0003.18
2024-05-05 00:53:00,SystemResetWarning,0825.6,5.01,000.00,025.0,022.2,000.0,033.7,025.9,019.3,0000.0,0017.61,0004.21,0003.16
2024-05-05 00:54:00,SystemResetWarning,0825.6,5.00,000.00,024.8,022.5,000.0,033.6,025.9,019.4,0000.0,0018.03,0004.20,0003.16
2024-05-05 00:55:00,SystemResetWarning,0825.6,5.00,000.00,024.8,022.9,000.0,033.4,026.2,019.2,0000.0,0016.75,0004.21,0003.15
2024-05-05 00:56:00,SystemResetWarning,0825.7,5.00,000.00,024.9,023.2,000.0,033.4,026.4,019.0,0000.0,0015.89,0004.24,0003.14
2024-05-05 00:57:00,SystemResetWarning,0825.6,5.00,000.00,024.9,023.6,000.0,033.3,026.6,019.0,0000.0,0015.71,0004.24,0003.13
2024-05-05 00:58:00,SystemResetWarning,0825.7,5.00,000.00,025.0,023.8,000.0,033.3,026.7,019.0,0000.0,0016.05,0004.25,0003.14
2024-05-05 00:59:00,SystemResetWarning,0825.7,4.99,000.00,025.0,024.1,000.0,033.3,026.8,018.9,0000.0,0014.91,0004.23,0003.13
